• în România
  • Lista ţărilor
  • Pe 7 zile
  • Temperatura apei
  • Hartă satelitară
  • Meteo pe hartă
  • Widget-uri
  • user-avatar
    Intrare

    Meteo pe oră la Bregenz

    Astăzi, 22 Septembrie, Vineri

    Timp Temperatura Precipitaţii Vânt Presiune Umiditate
    00:00 +5°C° 0 mm 1 m/s 647 mmHg 75%
    01:00 +5°C° 0 mm 1 m/s 647 mmHg 73%
    02:00 +5°C° 0 mm 1 m/s 647 mmHg 72%
    03:00 +5°C° 0 mm 1 m/s 647 mmHg 71%
    04:00 +5°C° 0 mm 1 m/s 647 mmHg 70%
    05:00 +6°C° 0 mm 1 m/s 647 mmHg 70%
    06:00 +6°C° 0 mm 1 m/s 647 mmHg 69%
    07:00 +6°C° 0 mm 1 m/s 648 mmHg 66%
    08:00 +9°C° 0 mm 1 m/s 648 mmHg 61%
    09:00 +11°C° 0 mm 1 m/s 649 mmHg 56%
    10:00 +13°C° 0 mm 1 m/s 649 mmHg 50%
    11:00 +14°C° 0 mm 1 m/s 650 mmHg 49%
    12:00 +15°C° 0 mm 2 m/s 650 mmHg 47%
    13:00 +16°C° 0 mm 2 m/s 650 mmHg 45%
    14:00 +16°C° 0 mm 2 m/s 650 mmHg 48%
    15:00 +15°C° 0 mm 1 m/s 650 mmHg 51%
    16:00 +15°C° 0 mm 1 m/s 650 mmHg 54%
    17:00 +12°C° 0 mm 1 m/s 649 mmHg 63%
    18:00 +10°C° 0 mm 1 m/s 649 mmHg 73%
    19:00 +7°C° 0 mm 1 m/s 648 mmHg 82%
    20:00 +7°C° 0 mm 1 m/s 649 mmHg 82%
    21:00 +7°C° 0 mm 1 m/s 649 mmHg 82%
    22:00 +6°C° 0 mm 1 m/s 649 mmHg 82%
    23:00 +6°C° 0 mm 1 m/s 649 mmHg 81%

    Mâine, 23 Septembrie, Sâmbătă

    Timp Temperatura Precipitaţii Vânt Presiune Umiditate
    00:00 +6°C° 0 mm 1 m/s 649 mmHg 80%
    01:00 +6°C° 0 mm 1 m/s 649 mmHg 80%
    02:00 +6°C° 0 mm 1 m/s 649 mmHg 80%
    03:00 +6°C° 0 mm 1 m/s 649 mmHg 80%
    04:00 +6°C° 0 mm 1 m/s 649 mmHg 80%
    05:00 +6°C° 0 mm 1 m/s 649 mmHg 80%
    06:00 +6°C° 0 mm 1 m/s 649 mmHg 80%
    07:00 +6°C° 0 mm 1 m/s 649 mmHg 80%
    08:00 +9°C° 0 mm 1 m/s 649 mmHg 74%
    09:00 +11°C° 0 mm 1 m/s 650 mmHg 67%
    10:00 +14°C° 0 mm 1 m/s 650 mmHg 60%
    11:00 +14°C° 0 mm 1 m/s 650 mmHg 59%
    12:00 +15°C° 0 mm 1 m/s 650 mmHg 58%
    13:00 +16°C° 0 mm 2 m/s 650 mmHg 57%
    14:00 +15°C° 0,2 mm 1 m/s 650 mmHg 62%
    15:00 +15°C° 0,2 mm 1 m/s 650 mmHg 66%
    16:00 +14°C° 0,2 mm 1 m/s 649 mmHg 70%
    17:00 +12°C° 0,2 mm 1 m/s 649 mmHg 77%
    18:00 +10°C° 0,2 mm 1 m/s 648 mmHg 85%
    19:00 +8°C° 0,2 mm 1 m/s 648 mmHg 92%
    20:00 +8°C° 0 mm 1 m/s 648 mmHg 92%
    21:00 +8°C° 0 mm 1 m/s 648 mmHg 93%
    22:00 +7°C° 0 mm 1 m/s 648 mmHg 93%
    23:00 +7°C° 0 mm 1 m/s 648 mmHg 93%

    Poimâine, 24 Septembrie, Duminică

    Timp Temperatura Precipitaţii Vânt Presiune Umiditate
    00:00 +7°C° 0 mm 1 m/s 648 mmHg 93%
    01:00 +7°C° 0 mm 1 m/s 648 mmHg 93%
    02:00 +7°C° 0,1 mm 1 m/s 648 mmHg 93%
    03:00 +6°C° 0,1 mm 1 m/s 647 mmHg 93%
    04:00 +5°C° 0,1 mm 0 m/s 647 mmHg 93%
    05:00 +6°C° 0,2 mm 1 m/s 647 mmHg 94%
    06:00 +6°C° 0,2 mm 1 m/s 647 mmHg 94%
    07:00 +6°C° 0,2 mm 1 m/s 647 mmHg 94%
    08:00 +8°C° 0,1 mm 1 m/s 648 mmHg 89%
    09:00 +9°C° 0,1 mm 1 m/s 649 mmHg 84%
    10:00 +11°C° 0,1 mm 1 m/s 649 mmHg 79%
    11:00 +12°C° 0,1 mm 1 m/s 649 mmHg 73%
    12:00 +13°C° 0,1 mm 1 m/s 649 mmHg 67%
    13:00 +14°C° 0,1 mm 1 m/s 649 mmHg 61%
    14:00 +14°C° 0,1 mm 1 m/s 649 mmHg 62%
    15:00 +13°C° 0,1 mm 1 m/s 649 mmHg 64%
    16:00 +13°C° 0,1 mm 1 m/s 649 mmHg 66%
    17:00 +11°C° 0,1 mm 1 m/s 648 mmHg 74%
    18:00 +9°C° 0,1 mm 1 m/s 648 mmHg 83%
    19:00 +7°C° 0,1 mm 1 m/s 648 mmHg 92%
    20:00 +7°C° 0 mm 1 m/s 648 mmHg 93%
    21:00 +7°C° 0 mm 1 m/s 648 mmHg 93%
    22:00 +6°C° 0 mm 1 m/s 648 mmHg 94%
    23:00 +6°C° 0 mm 1 m/s 648 mmHg 93%

    25 Septembrie, Luni

    Timp Temperatura Precipitaţii Vânt Presiune Umiditate
    00:00 +5°C° 0 mm 1 m/s 648 mmHg 93%
    01:00 +5°C° 0 mm 1 m/s 647 mmHg 93%
    02:00 +5°C° 0 mm 1 m/s 647 mmHg 91%
    03:00 +5°C° 0 mm 1 m/s 647 mmHg 90%
    04:00 +4°C° 0 mm 1 m/s 647 mmHg 89%
    05:00 +5°C° 0 mm 1 m/s 647 mmHg 87%
    06:00 +5°C° 0 mm 1 m/s 647 mmHg 86%
    07:00 +5°C° 0 mm 1 m/s 647 mmHg 85%
    08:00 +8°C° 0 mm 1 m/s 648 mmHg 76%
    09:00 +10°C° 0 mm 1 m/s 648 mmHg 68%
    10:00 +12°C° 0 mm 0 m/s 649 mmHg 60%
    11:00 +14°C° 0 mm 1 m/s 649 mmHg 56%
    12:00 +14°C° 0 mm 1 m/s 649 mmHg 52%
    13:00 +15°C° 0 mm 1 m/s 649 mmHg 48%
    14:00 +15°C° 0 mm 1 m/s 649 mmHg 52%
    15:00 +14°C° 0 mm 1 m/s 649 mmHg 55%
    16:00 +14°C° 0 mm 1 m/s 648 mmHg 58%
    17:00 +12°C° 0 mm 1 m/s 648 mmHg 68%
    18:00 +10°C° 0 mm 1 m/s 648 mmHg 77%
    19:00 +8°C° 0 mm 1 m/s 648 mmHg 87%
    20:00 +8°C° 0,1 mm 1 m/s 648 mmHg 87%
    21:00 +8°C° 0,1 mm 1 m/s 648 mmHg 88%
    22:00 +7°C° 0,1 mm 1 m/s 648 mmHg 89%
    23:00 +7°C° 0 mm 1 m/s 648 mmHg 89%

    26 Septembrie, Marţi

    Timp Temperatura Precipitaţii Vânt Presiune Umiditate
    00:00 +7°C° 0 mm 1 m/s 648 mmHg 89%
    01:00 +7°C° 0 mm 1 m/s 648 mmHg 89%
    02:00 +7°C° 0,1 mm 1 m/s 648 mmHg 90%
    03:00 +7°C° 0,1 mm 1 m/s 648 mmHg 90%
    04:00 +6°C° 0,1 mm 0 m/s 648 mmHg 91%
    05:00 +6°C° 0 mm 0 m/s 648 mmHg 90%
    06:00 +7°C° 0 mm 1 m/s 648 mmHg 89%
    07:00 +7°C° 0 mm 1 m/s 648 mmHg 89%
    08:00 +8°C° 0 mm 0 m/s 649 mmHg 82%
    09:00 +10°C° 0 mm 0 m/s 649 mmHg 76%
    10:00 +11°C° 0 mm 0 m/s 650 mmHg 70%
    11:00 +13°C° 0 mm 1 m/s 650 mmHg 67%
    12:00 +14°C° 0 mm 1 m/s 650 mmHg 65%
    13:00 +14°C° 0 mm 2 m/s 650 mmHg 63%
    14:00 +14°C° 0,2 mm 1 m/s 650 mmHg 67%
    15:00 +13°C° 0,2 mm 1 m/s 649 mmHg 70%
    16:00 +13°C° 0,2 mm 1 m/s 649 mmHg 74%
    17:00 +12°C° 0,2 mm 1 m/s 649 mmHg 80%
    18:00 +10°C° 0,2 mm 1 m/s 649 mmHg 86%
    19:00 +8°C° 0,2 mm 0 m/s 649 mmHg 91%
    20:00 +8°C° 0 mm 1 m/s 649 mmHg 92%
    21:00 +8°C° 0 mm 1 m/s 649 mmHg 93%
    22:00 +8°C° 0 mm 1 m/s 649 mmHg 94%
    23:00 +7°C° 0 mm 1 m/s 649 mmHg 94%

    27 Septembrie, Miercuri

    Timp Temperatura Precipitaţii Vânt Presiune Umiditate
    00:00 +7°C° 0 mm 1 m/s 649 mmHg 94%
    01:00 +7°C° 0 mm 1 m/s 649 mmHg 94%
    02:00 +7°C° 0 mm 1 m/s 649 mmHg 94%
    03:00 +5°C° 0 mm 0 m/s 649 mmHg 94%
    04:00 +5°C° 0 mm 0 m/s 649 mmHg 94%
    05:00 +5°C° 0 mm 0 m/s 649 mmHg 94%
    06:00 +5°C° 0 mm 0 m/s 649 mmHg 93%
    07:00 +6°C° 0 mm 0 m/s 649 mmHg 93%
    08:00 +8°C° 0 mm 0 m/s 650 mmHg 87%
    09:00 +10°C° 0 mm 1 m/s 651 mmHg 81%
    10:00 +12°C° 0 mm 1 m/s 651 mmHg 75%
    11:00 +13°C° 0,1 mm 1 m/s 651 mmHg 73%
    12:00 +14°C° 0,1 mm 1 m/s 651 mmHg 70%
    13:00 +15°C° 0,1 mm 2 m/s 651 mmHg 67%
    14:00 +14°C° 0,4 mm 2 m/s 651 mmHg 70%
    15:00 +14°C° 0,4 mm 2 m/s 651 mmHg 73%
    16:00 +14°C° 0,4 mm 2 m/s 651 mmHg 76%
    17:00 +12°C° 0,3 mm 1 m/s 651 mmHg 82%
    18:00 +10°C° 0,3 mm 1 m/s 651 mmHg 88%
    19:00 +9°C° 0,3 mm 1 m/s 650 mmHg 94%
    20:00 +8°C° 0,1 mm 1 m/s 650 mmHg 94%
    21:00 +8°C° 0,1 mm 1 m/s 650 mmHg 94%
    22:00 +7°C° 0,1 mm 1 m/s 650 mmHg 94%
    23:00 +7°C° 0 mm 1 m/s 650 mmHg 93%
    Arată mai mult